Year,Month,Day,Hour,Minute,Value (Times are PST for temperature in C)
2013,07,01,00,00,21.20
2013,07,01,00,01,21.20
2013,07,01,00,02,21.20
2013,07,01,00,03,21.20
2013,07,01,00,04,21.10
2013,07,01,00,05,21.10
2013,07,01,00,06,21.00
2013,07,01,00,07,21.00
2013,07,01,00,08,21.00
2013,07,01,00,09,21.00
2013,07,01,00,10,21.00
2013,07,01,00,11,20.90
2013,07,01,00,12,20.90
2013,07,01,00,13,20.90
2013,07,01,00,14,20.90
2013,07,01,00,15,20.90
2013,07,01,00,16,20.90
2013,07,01,00,17,20.90
2013,07,01,00,18,20.90
2013,07,01,00,19,20.90
2013,07,01,00,20,20.80
2013,07,01,00,21,20.80
2013,07,01,00,22,20.80
2013,07,01,00,23,20.80
2013,07,01,00,24,20.80
2013,07,01,00,25,20.80
2013,07,01,00,26,20.80
2013,07,01,00,27,20.80
2013,07,01,00,28,20.80
2013,07,01,00,29,20.80
2013,07,01,00,30,20.80
2013,07,01,00,31,20.80
2013,07,01,00,32,20.80
2013,07,01,00,33,20.80
2013,07,01,00,34,20.80
2013,07,01,00,35,20.80
2013,07,01,00,36,20.80
2013,07,01,00,37,20.80
2013,07,01,00,38,20.80
2013,07,01,00,39,20.80
2013,07,01,00,40,20.80
2013,07,01,00,41,20.80
2013,07,01,00,42,20.70
2013,07,01,00,43,20.70
2013,07,01,00,44,20.70
2013,07,01,00,45,20.60
2013,07,01,00,46,20.60
2013,07,01,00,47,20.60
2013,07,01,00,48,20.60
2013,07,01,00,49,20.50
2013,07,01,00,50,20.50
2013,07,01,00,51,20.50
2013,07,01,00,52,20.50
2013,07,01,00,53,20.40
2013,07,01,00,54,20.40
2013,07,01,00,55,20.40
2013,07,01,00,56,20.40
2013,07,01,00,57,20.40
2013,07,01,00,58,20.40
2013,07,01,00,59,20.40
2013,07,01,01,00,20.30
2013,07,01,01,01,20.30
2013,07,01,01,02,20.30
2013,07,01,01,03,20.30
2013,07,01,01,04,20.30
2013,07,01,01,05,20.20
2013,07,01,01,06,20.20
2013,07,01,01,07,20.20
2013,07,01,01,08,20.20
2013,07,01,01,09,20.20
2013,07,01,01,10,20.20
2013,07,01,01,11,20.20
2013,07,01,01,12,20.20
2013,07,01,01,13,20.20
2013,07,01,01,14,20.20
2013,07,01,01,15,20.20
2013,07,01,01,16,20.10
2013,07,01,01,17,20.10
2013,07,01,01,18,20.10
2013,07,01,01,19,20.10
2013,07,01,01,20,20.10
2013,07,01,01,21,20.10
2013,07,01,01,22,20.00
2013,07,01,01,23,19.90
2013,07,01,01,24,19.90
2013,07,01,01,25,19.90
2013,07,01,01,26,19.90
2013,07,01,01,27,19.90
2013,07,01,01,28,19.90
2013,07,01,01,29,19.90
2013,07,01,01,30,19.90
2013,07,01,01,31,19.90
2013,07,01,01,32,19.90
2013,07,01,01,33,19.90
2013,07,01,01,34,19.90
2013,07,01,01,35,19.90
2013,07,01,01,36,19.90
2013,07,01,01,37,19.80
2013,07,01,01,38,19.80
2013,07,01,01,39,19.80
2013,07,01,01,40,19.80
2013,07,01,01,41,19.70
2013,07,01,01,42,19.70
2013,07,01,01,43,19.70
2013,07,01,01,44,19.70
2013,07,01,01,45,19.70
2013,07,01,01,46,19.60
2013,07,01,01,47,19.60
2013,07,01,01,48,19.60
2013,07,01,01,49,19.60
2013,07,01,01,50,19.60
2013,07,01,01,51,19.50
2013,07,01,01,52,19.50
2013,07,01,01,53,19.50
2013,07,01,01,54,19.40
2013,07,01,01,55,19.40
2013,07,01,01,56,19.40
2013,07,01,01,57,19.40
2013,07,01,01,58,19.30
2013,07,01,01,59,19.30
2013,07,01,02,00,19.30
2013,07,01,02,01,19.30
2013,07,01,02,02,19.30
2013,07,01,02,03,19.20
2013,07,01,02,04,19.20
2013,07,01,02,05,19.20
2013,07,01,02,06,19.20
2013,07,01,02,07,19.10
2013,07,01,02,08,19.10
2013,07,01,02,09,19.10
2013,07,01,02,10,19.10
2013,07,01,02,11,19.10
2013,07,01,02,12,19.10
2013,07,01,02,13,19.10
2013,07,01,02,14,19.10
2013,07,01,02,15,19.10
2013,07,01,02,16,19.10
2013,07,01,02,17,19.10
2013,07,01,02,18,19.10
2013,07,01,02,19,18.90
2013,07,01,02,20,18.90
2013,07,01,02,21,18.90
2013,07,01,02,22,18.90
2013,07,01,02,23,18.90
2013,07,01,02,24,18.90
2013,07,01,02,25,18.90
2013,07,01,02,26,18.90
2013,07,01,02,27,18.90
2013,07,01,02,28,18.90
2013,07,01,02,29,18.90
2013,07,01,02,30,18.90
2013,07,01,02,31,18.90
2013,07,01,02,32,18.90
2013,07,01,02,33,18.90
2013,07,01,02,34,18.90
2013,07,01,02,35,18.90
2013,07,01,02,36,18.90
2013,07,01,02,37,18.90
2013,07,01,02,38,18.90
2013,07,01,02,39,18.90
2013,07,01,02,40,18.90
2013,07,01,02,41,18.90
2013,07,01,02,42,18.90
2013,07,01,02,43,18.90
2013,07,01,02,44,18.90
2013,07,01,02,45,18.90
2013,07,01,02,46,18.90
2013,07,01,02,47,18.90
2013,07,01,02,48,18.90
2013,07,01,02,49,18.90
2013,07,01,02,50,18.80
2013,07,01,02,51,18.80
2013,07,01,02,52,18.80
2013,07,01,02,53,18.80
2013,07,01,02,54,18.80
2013,07,01,02,55,18.80
2013,07,01,02,56,18.80
2013,07,01,02,57,18.80
2013,07,01,02,58,18.80
2013,07,01,02,59,18.80
2013,07,01,03,00,18.80
2013,07,01,03,01,18.80
2013,07,01,03,02,18.80
2013,07,01,03,03,18.80
2013,07,01,03,04,18.80
2013,07,01,03,05,18.80
2013,07,01,03,06,18.80
2013,07,01,03,07,18.80
2013,07,01,03,08,18.80
2013,07,01,03,09,18.80
2013,07,01,03,10,18.80
2013,07,01,03,11,18.80
2013,07,01,03,12,18.70
2013,07,01,03,13,18.70
2013,07,01,03,14,18.70
2013,07,01,03,15,18.70
2013,07,01,03,16,18.70
2013,07,01,03,17,18.70
2013,07,01,03,18,18.70
2013,07,01,03,19,18.70
2013,07,01,03,20,18.60
2013,07,01,03,21,18.60
2013,07,01,03,22,18.60
2013,07,01,03,23,18.60
2013,07,01,03,24,18.60
2013,07,01,03,25,18.50
2013,07,01,03,26,18.50
2013,07,01,03,27,18.50
2013,07,01,03,28,18.50
2013,07,01,03,29,18.40
2013,07,01,03,30,18.40
2013,07,01,03,31,18.40
2013,07,01,03,32,18.40
2013,07,01,03,33,18.40
2013,07,01,03,34,18.40
2013,07,01,03,35,18.30
2013,07,01,03,36,18.30
2013,07,01,03,37,18.30
2013,07,01,03,38,18.30
2013,07,01,03,39,18.30
2013,07,01,03,40,18.30
2013,07,01,03,41,18.30
2013,07,01,03,42,18.20
2013,07,01,03,43,18.20
2013,07,01,03,44,18.20
2013,07,01,03,45,18.20
2013,07,01,03,46,18.20
2013,07,01,03,47,18.20
2013,07,01,03,48,18.20
2013,07,01,03,49,18.20
2013,07,01,03,50,18.20
2013,07,01,03,51,18.20
2013,07,01,03,52,18.20
2013,07,01,03,53,18.20
2013,07,01,03,54,18.20
2013,07,01,03,55,18.20
2013,07,01,03,56,18.20
2013,07,01,03,57,18.20
2013,07,01,03,58,18.20
2013,07,01,03,59,18.20
2013,07,01,04,00,18.20
2013,07,01,04,01,18.20
2013,07,01,04,02,18.20
2013,07,01,04,03,18.20
2013,07,01,04,04,18.20
2013,07,01,04,05,18.20
2013,07,01,04,06,18.20
2013,07,01,04,07,18.20
2013,07,01,04,08,18.20
2013,07,01,04,09,18.20
2013,07,01,04,10,18.20
2013,07,01,04,11,18.20
2013,07,01,04,12,18.20
2013,07,01,04,13,18.20
2013,07,01,04,14,18.20
2013,07,01,04,15,18.20
2013,07,01,04,16,18.10
2013,07,01,04,17,18.10
2013,07,01,04,18,18.10
2013,07,01,04,19,18.10
2013,07,01,04,20,18.10
2013,07,01,04,21,18.00
2013,07,01,04,22,17.90
2013,07,01,04,23,17.90
2013,07,01,04,24,17.90
2013,07,01,04,25,17.90
2013,07,01,04,26,17.90
2013,07,01,04,27,17.90
2013,07,01,04,28,17.90
2013,07,01,04,29,17.90
2013,07,01,04,30,17.90
2013,07,01,04,31,17.90
2013,07,01,04,32,17.90
2013,07,01,04,33,17.90
2013,07,01,04,34,17.90
2013,07,01,04,35,17.80
2013,07,01,04,36,17.80
2013,07,01,04,37,17.80
2013,07,01,04,38,17.70
2013,07,01,04,39,17.70
2013,07,01,04,40,17.70
2013,07,01,04,41,17.70
2013,07,01,04,42,17.60
2013,07,01,04,43,17.60
2013,07,01,04,44,17.60
2013,07,01,04,45,17.60
2013,07,01,04,46,17.60
2013,07,01,04,47,17.60
2013,07,01,04,48,17.60
2013,07,01,04,49,17.60
2013,07,01,04,50,17.60
2013,07,01,04,51,17.60
2013,07,01,04,52,17.60
2013,07,01,04,53,17.60
2013,07,01,04,54,17.60
2013,07,01,04,55,17.60
2013,07,01,04,56,17.60
2013,07,01,04,57,17.60
2013,07,01,04,58,17.60
2013,07,01,04,59,17.60
2013,07,01,05,00,17.60
2013,07,01,05,01,17.60
2013,07,01,05,02,17.60
2013,07,01,05,03,17.60
2013,07,01,05,04,17.60
2013,07,01,05,05,17.60
2013,07,01,05,06,17.50
2013,07,01,05,07,17.50
2013,07,01,05,08,17.50
2013,07,01,05,09,17.50
2013,07,01,05,10,17.50
2013,07,01,05,11,17.50
2013,07,01,05,12,17.50
2013,07,01,05,13,17.50
2013,07,01,05,14,17.50
2013,07,01,05,15,17.50
2013,07,01,05,16,17.50
2013,07,01,05,17,17.50
2013,07,01,05,18,17.50
2013,07,01,05,19,17.50
2013,07,01,05,20,17.50
2013,07,01,05,21,17.50
2013,07,01,05,22,17.40
2013,07,01,05,23,17.40
2013,07,01,05,24,17.40
2013,07,01,05,25,17.40
2013,07,01,05,26,17.40
2013,07,01,05,27,17.40
2013,07,01,05,28,17.40
2013,07,01,05,29,17.40
2013,07,01,05,30,17.40
2013,07,01,05,31,17.40
2013,07,01,05,32,17.40
2013,07,01,05,33,17.40
2013,07,01,05,34,17.40
2013,07,01,05,35,17.30
2013,07,01,05,36,17.30
2013,07,01,05,37,17.30
2013,07,01,05,38,17.30
2013,07,01,05,39,17.30
2013,07,01,05,40,17.30
2013,07,01,05,41,17.30
2013,07,01,05,42,17.30
2013,07,01,05,43,17.30
2013,07,01,05,44,17.30
2013,07,01,05,45,17.30
2013,07,01,05,46,17.20
2013,07,01,05,47,17.20
2013,07,01,05,48,17.20
2013,07,01,05,49,17.20
2013,07,01,05,50,17.20
2013,07,01,05,51,17.20
2013,07,01,05,52,17.20
2013,07,01,05,53,17.20
2013,07,01,05,54,17.30
2013,07,01,05,55,17.30
2013,07,01,05,56,17.30
2013,07,01,05,57,17.30
2013,07,01,05,58,17.30
2013,07,01,05,59,17.30
2013,07,01,06,00,17.30
2013,07,01,06,01,17.30
2013,07,01,06,02,17.30
2013,07,01,06,03,17.30
2013,07,01,06,04,17.30
2013,07,01,06,05,17.30
2013,07,01,06,06,17.30
2013,07,01,06,07,17.30
2013,07,01,06,08,17.40
2013,07,01,06,09,17.40
2013,07,01,06,10,17.40
2013,07,01,06,11,17.50
2013,07,01,06,12,17.50
2013,07,01,06,13,17.60
2013,07,01,06,14,17.60
2013,07,01,06,15,17.70
2013,07,01,06,16,17.70
2013,07,01,06,17,17.80
2013,07,01,06,18,17.90
2013,07,01,06,19,17.90
2013,07,01,06,20,18.00
2013,07,01,06,21,18.20
2013,07,01,06,22,18.20
2013,07,01,06,23,18.40
2013,07,01,06,24,18.50
2013,07,01,06,25,18.60
2013,07,01,06,26,18.70
2013,07,01,06,27,18.80
2013,07,01,06,28,18.90
2013,07,01,06,29,18.90
2013,07,01,06,30,19.00
2013,07,01,06,31,19.10
2013,07,01,06,32,19.10
2013,07,01,06,33,19.10
2013,07,01,06,34,19.10
2013,07,01,06,35,19.10
2013,07,01,06,36,19.10
2013,07,01,06,37,19.10
2013,07,01,06,38,19.10
2013,07,01,06,39,19.10
2013,07,01,06,40,19.10
2013,07,01,06,41,19.10
2013,07,01,06,42,19.10
2013,07,01,06,43,19.10
2013,07,01,06,44,19.10
2013,07,01,06,45,19.10
2013,07,01,06,46,19.10
2013,07,01,06,47,19.10
2013,07,01,06,48,19.10
2013,07,01,06,49,19.10
2013,07,01,06,50,19.20
2013,07,01,06,51,19.20
2013,07,01,06,52,19.30
2013,07,01,06,53,19.30
2013,07,01,06,54,19.30
2013,07,01,06,55,19.30
2013,07,01,06,56,19.30
2013,07,01,06,57,19.30
2013,07,01,06,58,19.40
2013,07,01,06,59,19.40
2013,07,01,07,00,19.50
2013,07,01,07,01,19.50
2013,07,01,07,02,19.60
2013,07,01,07,03,19.60
2013,07,01,07,04,19.70
2013,07,01,07,05,19.70
2013,07,01,07,06,19.80
2013,07,01,07,07,19.80
2013,07,01,07,08,19.80
2013,07,01,07,09,19.80
2013,07,01,07,10,19.90
2013,07,01,07,11,19.90
2013,07,01,07,12,19.90
2013,07,01,07,13,19.90
2013,07,01,07,14,19.90
2013,07,01,07,15,19.90
2013,07,01,07,16,19.90
2013,07,01,07,17,20.00
2013,07,01,07,18,20.10
2013,07,01,07,19,20.10
2013,07,01,07,20,20.10
2013,07,01,07,21,20.10
2013,07,01,07,22,20.10
2013,07,01,07,23,20.10
2013,07,01,07,24,20.10
2013,07,01,07,25,20.10
2013,07,01,07,26,20.20
2013,07,01,07,27,20.20
2013,07,01,07,28,20.20
2013,07,01,07,29,20.20
2013,07,01,07,30,20.30
2013,07,01,07,31,20.40
2013,07,01,07,32,20.40
2013,07,01,07,33,20.50
2013,07,01,07,34,20.60
2013,07,01,07,35,20.60
2013,07,01,07,36,20.70
2013,07,01,07,37,20.70
2013,07,01,07,38,20.80
2013,07,01,07,39,20.80
2013,07,01,07,40,20.90
2013,07,01,07,41,21.00
2013,07,01,07,42,21.10
2013,07,01,07,43,21.10
2013,07,01,07,44,21.10
2013,07,01,07,45,21.20
2013,07,01,07,46,21.20
2013,07,01,07,47,21.20
2013,07,01,07,48,21.20
2013,07,01,07,49,21.20
2013,07,01,07,50,21.30
2013,07,01,07,51,21.30
2013,07,01,07,52,21.30
2013,07,01,07,53,21.40
2013,07,01,07,54,21.50
2013,07,01,07,55,21.60
2013,07,01,07,56,21.60
2013,07,01,07,57,21.60
2013,07,01,07,58,21.70
2013,07,01,07,59,21.80
2013,07,01,08,00,21.80
2013,07,01,08,01,21.80
2013,07,01,08,02,21.90
2013,07,01,08,03,22.00
2013,07,01,08,04,21.90
2013,07,01,08,05,21.80
2013,07,01,08,06,21.90
2013,07,01,08,07,21.90
2013,07,01,08,08,22.00
2013,07,01,08,09,22.00
2013,07,01,08,10,22.00
2013,07,01,08,11,22.00
2013,07,01,08,12,21.90
2013,07,01,08,13,21.90
2013,07,01,08,14,21.80
2013,07,01,08,15,21.90
2013,07,01,08,16,21.90
2013,07,01,08,17,22.00
2013,07,01,08,18,22.10
2013,07,01,08,19,22.10
2013,07,01,08,20,22.20
2013,07,01,08,21,22.20
2013,07,01,08,22,22.20
2013,07,01,08,23,22.20
2013,07,01,08,24,22.20
2013,07,01,08,25,22.20
2013,07,01,08,26,22.30
2013,07,01,08,27,22.40
2013,07,01,08,28,22.50
2013,07,01,08,29,22.50
2013,07,01,08,30,22.50
2013,07,01,08,31,22.60
2013,07,01,08,32,22.60
2013,07,01,08,33,22.60
2013,07,01,08,34,22.70
2013,07,01,08,35,22.70
2013,07,01,08,36,22.70
2013,07,01,08,37,22.70
2013,07,01,08,38,22.70
2013,07,01,08,39,22.80
2013,07,01,08,40,22.80
2013,07,01,08,41,22.80
2013,07,01,08,42,22.90
2013,07,01,08,43,23.00
2013,07,01,08,44,23.10
2013,07,01,08,45,23.30
2013,07,01,08,46,23.40
2013,07,01,08,47,23.50
2013,07,01,08,48,23.60
2013,07,01,08,49,23.40
2013,07,01,08,50,23.30
2013,07,01,08,51,23.20
2013,07,01,08,52,23.00
2013,07,01,08,53,22.90
2013,07,01,08,54,22.90
2013,07,01,08,55,22.90
2013,07,01,08,56,22.90
2013,07,01,08,57,22.90
2013,07,01,08,58,22.80
2013,07,01,08,59,22.70
2013,07,01,09,00,22.70
2013,07,01,09,01,22.70
2013,07,01,09,02,22.70
2013,07,01,09,03,22.60
2013,07,01,09,04,22.60
2013,07,01,09,05,22.60
2013,07,01,09,06,22.70
2013,07,01,09,07,22.70
2013,07,01,09,08,22.90
2013,07,01,09,09,23.00
2013,07,01,09,10,23.10
2013,07,01,09,11,23.20
2013,07,01,09,12,23.30
2013,07,01,09,13,23.40
2013,07,01,09,14,23.50
2013,07,01,09,15,23.60
2013,07,01,09,16,23.50
2013,07,01,09,17,23.40
2013,07,01,09,18,23.50
2013,07,01,09,19,23.60
2013,07,01,09,20,23.70
2013,07,01,09,21,23.70
2013,07,01,09,22,23.70
2013,07,01,09,23,23.70
2013,07,01,09,24,23.60
2013,07,01,09,25,23.50
2013,07,01,09,26,23.40
2013,07,01,09,27,23.40
2013,07,01,09,28,23.40
2013,07,01,09,29,23.30
2013,07,01,09,30,23.30
2013,07,01,09,31,23.20
2013,07,01,09,32,23.20
2013,07,01,09,33,23.20
2013,07,01,09,34,23.20
2013,07,01,09,35,23.20
2013,07,01,09,36,23.10
2013,07,01,09,37,23.10
2013,07,01,09,38,23.20
2013,07,01,09,39,23.20
2013,07,01,09,40,23.20
2013,07,01,09,41,23.20
2013,07,01,09,42,23.20
2013,07,01,09,43,23.30
2013,07,01,09,44,23.30
2013,07,01,09,45,23.30
2013,07,01,09,46,23.30
2013,07,01,09,47,23.40
2013,07,01,09,48,23.50
2013,07,01,09,49,23.60
2013,07,01,09,50,23.60
2013,07,01,09,51,23.70
2013,07,01,09,52,23.70
2013,07,01,09,53,23.70
2013,07,01,09,54,23.70
2013,07,01,09,55,23.80
2013,07,01,09,56,23.80
2013,07,01,09,57,23.80
2013,07,01,09,58,23.80
2013,07,01,09,59,23.80
2013,07,01,10,00,23.80
2013,07,01,10,01,23.80
2013,07,01,10,02,23.80
2013,07,01,10,03,23.80
2013,07,01,10,04,23.80
2013,07,01,10,05,23.70
2013,07,01,10,06,23.70
2013,07,01,10,07,23.70
2013,07,01,10,08,23.60
2013,07,01,10,09,23.50
2013,07,01,10,10,23.40
2013,07,01,10,11,23.40
2013,07,01,10,12,23.40
2013,07,01,10,13,23.40
2013,07,01,10,14,23.30
2013,07,01,10,15,23.30
2013,07,01,10,16,23.30
2013,07,01,10,17,23.30
2013,07,01,10,18,23.30
2013,07,01,10,19,23.30
2013,07,01,10,20,23.30
2013,07,01,10,21,23.30
2013,07,01,10,22,23.30
2013,07,01,10,23,23.30
2013,07,01,10,24,23.20
2013,07,01,10,25,23.20
2013,07,01,10,26,23.20
2013,07,01,10,27,23.20
2013,07,01,10,28,23.20
2013,07,01,10,29,23.30
2013,07,01,10,30,23.30
2013,07,01,10,31,23.40
2013,07,01,10,32,23.40
2013,07,01,10,33,23.50
2013,07,01,10,34,23.60
2013,07,01,10,35,23.40
2013,07,01,10,36,23.40
2013,07,01,10,37,23.30
2013,07,01,10,38,23.30
2013,07,01,10,39,23.30
2013,07,01,10,40,23.30
2013,07,01,10,41,23.30
2013,07,01,10,42,23.30
2013,07,01,10,43,23.30
2013,07,01,10,44,23.40
2013,07,01,10,45,23.50
2013,07,01,10,46,23.60
2013,07,01,10,47,23.60
2013,07,01,10,48,23.70
2013,07,01,10,49,23.70
2013,07,01,10,50,23.70
2013,07,01,10,51,23.70
2013,07,01,10,52,23.70
2013,07,01,10,53,23.70
2013,07,01,10,54,23.70
2013,07,01,10,55,23.80
2013,07,01,10,56,23.80
2013,07,01,10,57,23.90
2013,07,01,10,58,24.00
2013,07,01,10,59,24.10
2013,07,01,11,00,24.10
2013,07,01,11,01,24.10
2013,07,01,11,02,24.10
2013,07,01,11,03,24.10
2013,07,01,11,04,24.10
2013,07,01,11,05,24.10
2013,07,01,11,06,24.10
2013,07,01,11,07,24.10
2013,07,01,11,08,24.20
2013,07,01,11,09,24.20
2013,07,01,11,10,24.30
2013,07,01,11,11,24.30
2013,07,01,11,12,24.30
2013,07,01,11,13,24.40
2013,07,01,11,14,24.50
2013,07,01,11,15,24.60
2013,07,01,11,16,24.70
2013,07,01,11,17,24.70
2013,07,01,11,18,24.70
2013,07,01,11,19,24.70
2013,07,01,11,20,24.70
2013,07,01,11,21,24.70
2013,07,01,11,22,24.70
2013,07,01,11,23,24.70
2013,07,01,11,24,24.70
2013,07,01,11,25,24.70
2013,07,01,11,26,24.70
2013,07,01,11,27,24.70
2013,07,01,11,28,24.70
2013,07,01,11,29,24.80
2013,07,01,11,30,24.90
2013,07,01,11,31,25.00
2013,07,01,11,32,25.00
2013,07,01,11,33,25.00
2013,07,01,11,34,25.00
2013,07,01,11,35,25.00
2013,07,01,11,36,25.00
2013,07,01,11,37,25.00
2013,07,01,11,38,25.10
2013,07,01,11,39,25.10
2013,07,01,11,40,25.30
2013,07,01,11,41,25.40
2013,07,01,11,42,25.40
2013,07,01,11,43,25.30
2013,07,01,11,44,25.20
2013,07,01,11,45,25.20
2013,07,01,11,46,25.10
2013,07,01,11,47,25.10
2013,07,01,11,48,25.00
2013,07,01,11,49,24.90
2013,07,01,11,50,24.80
2013,07,01,11,51,24.90
2013,07,01,11,52,24.90
2013,07,01,11,53,25.00
2013,07,01,11,54,24.90
2013,07,01,11,55,24.90
2013,07,01,11,56,24.90
2013,07,01,11,57,24.90
2013,07,01,11,58,24.80
2013,07,01,11,59,24.70
2013,07,01,12,00,24.70
2013,07,01,12,01,24.70
2013,07,01,12,02,24.70
2013,07,01,12,03,24.80
2013,07,01,12,04,24.80
2013,07,01,12,05,24.80
2013,07,01,12,06,24.60
2013,07,01,12,07,24.50
2013,07,01,12,08,24.40
2013,07,01,12,09,24.30
2013,07,01,12,10,24.30
2013,07,01,12,11,24.30
2013,07,01,12,12,24.30
2013,07,01,12,13,24.30
2013,07,01,12,14,24.40
2013,07,01,12,15,24.50
2013,07,01,12,16,24.60
2013,07,01,12,17,24.70
2013,07,01,12,18,24.70
2013,07,01,12,19,24.80
2013,07,01,12,20,24.70
2013,07,01,12,21,24.70
2013,07,01,12,22,24.70
2013,07,01,12,23,24.80
2013,07,01,12,24,24.90
2013,07,01,12,25,25.00
2013,07,01,12,26,25.20
2013,07,01,12,27,25.30
2013,07,01,12,28,25.30
2013,07,01,12,29,25.30
2013,07,01,12,30,25.30
2013,07,01,12,31,25.30
2013,07,01,12,32,25.40
2013,07,01,12,33,25.40
2013,07,01,12,34,25.40
2013,07,01,12,35,25.40
2013,07,01,12,36,25.20
2013,07,01,12,37,25.10
2013,07,01,12,38,25.00
2013,07,01,12,39,24.90
2013,07,01,12,40,24.90
2013,07,01,12,41,24.80
2013,07,01,12,42,24.70
2013,07,01,12,43,24.80
2013,07,01,12,44,24.80
2013,07,01,12,45,24.90
2013,07,01,12,46,24.90
2013,07,01,12,47,24.90
2013,07,01,12,48,25.00
2013,07,01,12,49,25.00
2013,07,01,12,50,25.00
2013,07,01,12,51,25.00
2013,07,01,12,52,25.00
2013,07,01,12,53,25.20
2013,07,01,12,54,25.30
2013,07,01,12,55,25.30
2013,07,01,12,56,25.40
2013,07,01,12,57,25.40
2013,07,01,12,58,25.40
2013,07,01,12,59,25.40
2013,07,01,13,00,25.40
2013,07,01,13,01,25.50
2013,07,01,13,02,25.60
2013,07,01,13,03,25.80
2013,07,01,13,04,25.90
2013,07,01,13,05,25.90
2013,07,01,13,06,25.90
2013,07,01,13,07,25.90
2013,07,01,13,08,25.90
2013,07,01,13,09,25.90
2013,07,01,13,10,25.90
2013,07,01,13,11,26.00
2013,07,01,13,12,26.20
2013,07,01,13,13,26.50
2013,07,01,13,14,26.70
2013,07,01,13,15,26.90
2013,07,01,13,16,27.30
2013,07,01,13,17,27.50
2013,07,01,13,18,27.70
2013,07,01,13,19,27.80
2013,07,01,13,20,28.00
2013,07,01,13,21,28.00
2013,07,01,13,22,27.90
2013,07,01,13,23,28.00
2013,07,01,13,24,28.00
2013,07,01,13,25,28.00
2013,07,01,13,26,28.10
2013,07,01,13,27,28.10
2013,07,01,13,28,28.20
2013,07,01,13,29,28.30
2013,07,01,13,30,28.40
2013,07,01,13,31,28.40
2013,07,01,13,32,28.40
2013,07,01,13,33,28.40
2013,07,01,13,34,28.20
2013,07,01,13,35,28.20
2013,07,01,13,36,28.20
2013,07,01,13,37,28.10
2013,07,01,13,38,28.00
2013,07,01,13,39,28.00
2013,07,01,13,40,28.10
2013,07,01,13,41,28.20
2013,07,01,13,42,28.20
2013,07,01,13,43,28.30
2013,07,01,13,44,28.40
2013,07,01,13,45,28.40
2013,07,01,13,46,28.40
2013,07,01,13,47,28.50
2013,07,01,13,48,28.60
2013,07,01,13,49,28.70
2013,07,01,13,50,28.70
2013,07,01,13,51,28.60
2013,07,01,13,52,28.40
2013,07,01,13,53,28.30
2013,07,01,13,54,28.20
2013,07,01,13,55,28.20
2013,07,01,13,56,28.30
2013,07,01,13,57,28.50
2013,07,01,13,58,28.60
2013,07,01,13,59,28.50
2013,07,01,14,00,28.40
2013,07,01,14,01,28.40
2013,07,01,14,02,28.40
2013,07,01,14,03,28.50
2013,07,01,14,04,28.70
2013,07,01,14,05,28.80
2013,07,01,14,06,28.90
2013,07,01,14,07,29.10
2013,07,01,14,08,29.10
2013,07,01,14,09,29.20
2013,07,01,14,10,29.10
2013,07,01,14,11,28.90
2013,07,01,14,12,28.90
2013,07,01,14,13,28.90
2013,07,01,14,14,28.90
2013,07,01,14,15,28.90
2013,07,01,14,16,28.90
2013,07,01,14,17,29.00
2013,07,01,14,18,29.10
2013,07,01,14,19,29.30
2013,07,01,14,20,29.50
2013,07,01,14,21,29.50
2013,07,01,14,22,29.40
2013,07,01,14,23,29.20
2013,07,01,14,24,29.10
2013,07,01,14,25,29.00
2013,07,01,14,26,28.90
2013,07,01,14,27,29.00
2013,07,01,14,28,29.10
2013,07,01,14,29,29.20
2013,07,01,14,30,29.20
2013,07,01,14,31,29.30
2013,07,01,14,32,29.40
2013,07,01,14,33,29.50
2013,07,01,14,34,29.40
2013,07,01,14,35,29.40
2013,07,01,14,36,29.40
2013,07,01,14,37,29.30
2013,07,01,14,38,29.20
2013,07,01,14,39,29.10
2013,07,01,14,40,28.90
2013,07,01,14,41,28.80
2013,07,01,14,42,28.80
2013,07,01,14,43,28.70
2013,07,01,14,44,28.50
2013,07,01,14,45,28.40
2013,07,01,14,46,28.10
2013,07,01,14,47,27.90
2013,07,01,14,48,27.90
2013,07,01,14,49,28.10
2013,07,01,14,50,28.20
2013,07,01,14,51,28.30
2013,07,01,14,52,28.20
2013,07,01,14,53,28.20
2013,07,01,14,54,28.30
2013,07,01,14,55,28.30
2013,07,01,14,56,28.40
2013,07,01,14,57,28.50
2013,07,01,14,58,28.70
2013,07,01,14,59,28.90
2013,07,01,15,00,29.00
2013,07,01,15,01,29.10
2013,07,01,15,02,29.10
2013,07,01,15,03,29.00
2013,07,01,15,04,29.00
2013,07,01,15,05,29.10
2013,07,01,15,06,29.10
2013,07,01,15,07,29.00
2013,07,01,15,08,28.90
2013,07,01,15,09,28.80
2013,07,01,15,10,28.60
2013,07,01,15,11,28.60
2013,07,01,15,12,28.60
2013,07,01,15,13,28.60
2013,07,01,15,14,28.70
2013,07,01,15,15,28.60
2013,07,01,15,16,28.60
2013,07,01,15,17,28.60
2013,07,01,15,18,28.70
2013,07,01,15,19,28.70
2013,07,01,15,20,28.70
2013,07,01,15,21,28.70
2013,07,01,15,22,28.80
2013,07,01,15,23,28.90
2013,07,01,15,24,28.90
2013,07,01,15,25,28.90
2013,07,01,15,26,29.00
2013,07,01,15,27,29.10
2013,07,01,15,28,29.30
2013,07,01,15,29,29.50
2013,07,01,15,30,29.60
2013,07,01,15,31,29.70
2013,07,01,15,32,29.70
2013,07,01,15,33,29.70
2013,07,01,15,34,29.60
2013,07,01,15,35,29.60
2013,07,01,15,36,29.60
2013,07,01,15,37,29.70
2013,07,01,15,38,29.80
2013,07,01,15,39,29.80
2013,07,01,15,40,29.80
2013,07,01,15,41,29.80
2013,07,01,15,42,29.90
2013,07,01,15,43,29.90
2013,07,01,15,44,29.90
2013,07,01,15,45,29.80
2013,07,01,15,46,29.60
2013,07,01,15,47,29.60
2013,07,01,15,48,29.60
2013,07,01,15,49,29.60
2013,07,01,15,50,29.70
2013,07,01,15,51,29.70
2013,07,01,15,52,29.70
2013,07,01,15,53,29.70
2013,07,01,15,54,29.70
2013,07,01,15,55,29.60
2013,07,01,15,56,29.60
2013,07,01,15,57,29.50
2013,07,01,15,58,29.50
2013,07,01,15,59,29.60
2013,07,01,16,00,29.60
2013,07,01,16,01,29.70
2013,07,01,16,02,29.80
2013,07,01,16,03,29.80
2013,07,01,16,04,29.80
2013,07,01,16,05,29.60
2013,07,01,16,06,29.60
2013,07,01,16,07,29.50
2013,07,01,16,08,29.50
2013,07,01,16,09,29.40
2013,07,01,16,10,29.30
2013,07,01,16,11,29.30
2013,07,01,16,12,29.40
2013,07,01,16,13,29.40
2013,07,01,16,14,29.50
2013,07,01,16,15,29.50
2013,07,01,16,16,29.50
2013,07,01,16,17,29.50
2013,07,01,16,18,29.50
2013,07,01,16,19,29.40
2013,07,01,16,20,29.40
2013,07,01,16,21,29.40
2013,07,01,16,22,29.40
2013,07,01,16,23,29.40
2013,07,01,16,24,29.40
2013,07,01,16,25,29.50
2013,07,01,16,26,29.60
2013,07,01,16,27,29.70
2013,07,01,16,28,29.80
2013,07,01,16,29,29.80
2013,07,01,16,30,29.80
2013,07,01,16,31,29.70
2013,07,01,16,32,29.70
2013,07,01,16,33,29.70
2013,07,01,16,34,29.60
2013,07,01,16,35,29.60
2013,07,01,16,36,29.70
2013,07,01,16,37,29.70
2013,07,01,16,38,29.80
2013,07,01,16,39,29.70
2013,07,01,16,40,29.70
2013,07,01,16,41,29.60
2013,07,01,16,42,29.50
2013,07,01,16,43,29.50
2013,07,01,16,44,29.50
2013,07,01,16,45,29.50
2013,07,01,16,46,29.40
2013,07,01,16,47,29.40
2013,07,01,16,48,29.50
2013,07,01,16,49,29.50
2013,07,01,16,50,29.50
2013,07,01,16,51,29.60
2013,07,01,16,52,29.70
2013,07,01,16,53,29.80
2013,07,01,16,54,29.80
2013,07,01,16,55,29.90
2013,07,01,16,56,29.90
2013,07,01,16,57,29.90
2013,07,01,16,58,29.80
2013,07,01,16,59,29.60
2013,07,01,17,00,29.50
2013,07,01,17,01,29.40
2013,07,01,17,02,29.40
2013,07,01,17,03,29.50
2013,07,01,17,04,29.60
2013,07,01,17,05,29.70
2013,07,01,17,06,29.80
2013,07,01,17,07,30.00
2013,07,01,17,08,30.10
2013,07,01,17,09,30.20
2013,07,01,17,10,30.30
2013,07,01,17,11,30.20
2013,07,01,17,12,30.20
2013,07,01,17,13,30.20
2013,07,01,17,14,30.20
2013,07,01,17,15,30.30
2013,07,01,17,16,30.30
2013,07,01,17,17,30.40
2013,07,01,17,18,30.40
2013,07,01,17,19,30.40